{"data":{"norad_id":27438,"intl_designator":"2002-027A","name":"INTELSAT 905 (IS-905)","alt_names":[],"object_type":"PAYLOAD","status":"ACTIVE","operator":null,"country":"ITSO","launch_date":"2002-06-05","launch_site_code":"FRGUI","launch_vehicle":null,"mission":null,"orbit_class":"UNKNOWN","rcs_meters":15.8865,"size_class":null,"mass_kg":null,"dimensions":null,"purposes":["comms"],"wikipedia_slug":null,"has_3d_model":false,"image_url":null,"decayed_at":null,"tle_current":{"epoch":"2026-09-19T15:17:31.947648Z","epoch_age_seconds":86030,"freshness":"FRESH","line1":"1 27438U 02027A   26262.63717532  .00000091  00000+0  00000+0 0  9995","line2":"2 27438   6.9844  68.6198 0003149 136.5457 245.5753  1.00272183 52319","mean_motion":1.00272183,"eccentricity":0.0003149,"inclination_deg":6.9844,"raan_deg":68.6198,"arg_perigee_deg":136.5457,"mean_anomaly_deg":245.5753,"bstar":0,"rev_number":5231,"period_min":1436.0912038785,"perigee_km":35773.205748752,"apogee_km":35799.761026672,"semimajor_km":42164.620387712,"source":"CELESTRAK","updated_at":"2026-09-20T09:00:35.514108Z"}}}